User: anonymous   Login
Location: Falniów
(50.3639°N, 19.9642°E)
Time: 10:25:57
(UTC+00:00)
Language:

Dummy Sat-02 - Orbit

View from above orbital plane
View from above orbital plane
View from above satellite
View from above satellite

Ground track
Ground track

The orbit is defined by the following mean orbital elements,

1 26366U          26071.73030262 +.00000000 +00000-0 +11324-3 0 00009
2 26366  86.3512 175.0129 0003605 269.5096  90.5739 15.29057295    04
Epoch (UTC): 12 March 2026 17:31:38
Eccentricity: 0.0003605
inclination: 86.3512°
perigee height: 476 km
apogee height: 481 km
right ascension of ascending node: 175.0129°
argument of perigee: 269.5096°
revolutions per day: 15.29057295
mean anomaly at epoch: 90.5739°

The dashed part of the orbit path shows where the satellite is in the earth's shadow,  

DLR